Lazy 5 Park, Sparks, Nevada Weather observations

Data are for 10 minute period ending at time listed.
 Day   Time   Solar   Ave.   Ave.  Ave.  Vector  Max.   Baro.   Total    
  of    of     Rad.   Air    Rel.  Wind   Wind   Wind  Press.  Precip.   
Year   Day            Temp.  Hum.  Speed  Dir.   Gust                    
2026   (PST)  Kw/m2    F      %     mph   deg.    mph    mb.     in.     
-------------------------------------------------------------------------
 128   10:30   0.74   72.4    16    4.4   273     7.4   99999.0    0.00 
 128   10:40   0.77   72.3    16    3.3   342     7.8   99999.0    0.00 
 128   10:50   0.80   72.9    14    3.8    26     6.7   99999.0    0.00 
 128   11:00   0.83   72.1    15    5.7   357    11.7   99999.0    0.00 
 128   11:10   0.78   72.1    14    4.1   304     8.5   99999.0    0.00 
 128   11:20   0.87   73.0    14    5.4    42     8.9   99999.0    0.00 
 128   11:30   0.81   72.8    15    3.6    10     6.3   99999.0    0.00 
 128   11:40   0.85   73.3    14    4.0    28     6.7   99999.0    0.00 
 128   11:50   0.81   74.3    13    2.6   356     7.4   99999.0    0.00 
 128   12:00   0.82   74.2    14    4.9    21    12.8   99999.0    0.00 
 128   12:10   0.81   74.0    14    7.2    44    14.6   99999.0    0.00 
 128   12:20   0.81   75.0    13    2.5   215     7.4   99999.0    0.00 
 128   12:30   0.81   76.2    13    5.4    58    10.6   99999.0    0.00 
 128   12:40   0.81   76.0    12    4.9    76     8.5   99999.0    0.00 
 128   12:50   0.80   76.7    12    6.3    73    13.5   99999.0    0.00 
 128   13:00   0.80   75.8    14    5.7    46    11.4   99999.0    0.00 
 128   13:10   0.79   75.8    15    4.2    24    12.4   99999.0    0.00 
 128   13:20   0.78   76.9    13    6.3    73    11.4   99999.0    0.00 
 128   13:30   0.77   77.3    13    6.8    67    14.6   99999.0    0.00 
 128   13:40   0.75   77.5    12    7.1    84    11.4   99999.0    0.00 
 128   13:50   0.74   77.7    13    6.6    44    12.1   99999.0    0.00 
 128   14:00   0.73   77.8    12    5.8    68    11.0   99999.0    0.00 
 128   14:10   0.71   77.3    13    7.5    50    13.5   99999.0    0.00 
 128   14:20   0.70   78.6    12    6.4    69    13.1   99999.0    0.00 
 128   14:30   0.68   78.8    11    6.7    72    13.5   99999.0    0.00 
 128   14:40   0.66   78.9    11    6.5    67    17.1   99999.0    0.00 
 128   14:50   0.64   78.3    12    7.2    54    12.8   99999.0    0.00 
 128   15:00   0.62   78.8    11    7.0    74    12.1   99999.0    0.00 
 128   15:10   0.60   79.1    11    7.8    57    14.2   99999.0    0.00 
 128   15:20   0.26   78.5    12    7.7    65    15.3   99999.0    0.00 
 128   15:30   0.39   77.9    12    8.8    54    15.6   99999.0    0.00 
 128   15:40   0.53   78.6    11    6.5    74    12.4   99999.0    0.00 
 128   15:50   0.51   78.9    11    7.0    65    13.1   99999.0    0.00 
 128   16:00   0.48   78.8    11    7.6    68    13.9   99999.0    0.00 
 128   16:10   0.46   78.3    11    8.0    65    13.9   99999.0    0.00 
 128   16:20   0.43   78.4    10    7.9    56    13.1   99999.0    0.00 
 128   16:30   0.40   78.3    11    6.4    63    12.4   99999.0    0.00 
 128   16:40   0.37   78.5    12    5.8    74    13.9   99999.0    0.00 
 128   16:50   0.32   77.9    14    8.1    62    14.6   99999.0    0.00 
 128   17:00   0.28   77.2    14    8.1    64    15.6   99999.0    0.00 
 128   17:10   0.28   76.6    14    7.1    48    13.1   99999.0    0.00 
 128   17:20   0.25   77.3    14    6.6    63    12.4   99999.0    0.00 
 128   17:30   0.22   76.9    15    7.2    61    11.4   99999.0    0.00 
 128   17:40   0.19   76.3    15    6.3    61    11.4   99999.0    0.00 
 128   17:50   0.17   76.3    16    7.3    59    13.1   99999.0    0.00 
 128   18:00   0.13   75.8    16    6.6    53    12.4   99999.0    0.00 
 128   18:10   0.10   74.7    17    7.7    48    12.8   99999.0    0.00 
 128   18:20   0.06   74.9    16    7.4    53    12.8   99999.0    0.00 
 128   18:30   0.04   74.5    16    6.5    54    10.3   99999.0    0.00 
 128   18:40   0.05   74.1    16    6.6    60    10.3   99999.0    0.00 
 128   18:50   0.03   73.2    18    5.8    53     8.9   99999.0    0.00 
 128   19:00   0.01   72.2    19    5.4    56     9.6   99999.0    0.00 
 128   19:10   0.00   71.7    20    6.3    56    10.3   99999.0    0.00 
 128   19:20   0.00   71.2    21    6.3    59     9.9   99999.0    0.00 
 128   19:30   0.00   70.4    23    5.6    56     9.2   99999.0    0.00 
 128   19:40   0.00   69.7    24    4.8    57     7.1   99999.0    0.00 
 128   19:50   0.00   69.1    25    5.9    55    10.3   99999.0    0.00 
 128   20:00   0.00   68.5    27    5.7    49     8.9   99999.0    0.00 
 128   20:10   0.00   67.9    28    5.4    50     9.2   99999.0    0.00 
 128   20:20   0.00   67.9    28    5.0    56     8.5   99999.0    0.00 
 128   20:30   0.00   67.4    29    3.0   162     5.3   99999.0    0.00 
 128   20:40   0.00   65.8    29    2.9   208     5.3   99999.0    0.00 
 128   20:50   0.00   63.8    33    2.5   221     4.9   99999.0    0.00 
 128   21:00   0.00   63.9    34    3.7   215     8.9   99999.0    0.00 
 128   21:10   0.00   65.8    32    4.3   241     9.9   99999.0    0.00 
 128   21:20   0.00   66.1    33    2.1   115     6.3   99999.0    0.00 
 128   21:30   0.00   65.1    34    3.8   163     5.6   99999.0    0.00 
 128   21:40   0.00   65.1    34    3.8   116     6.0   99999.0    0.00 
 128   21:50   0.00   65.2    34    2.7    72     5.6   99999.0    0.00 
 128   22:00   0.00   64.1    36    0.8   118     2.4   99999.0    0.00 
 128   22:10   0.00   63.4    37    2.2   104     7.1   99999.0    0.00 
 128   22:20   0.00   64.9    33    3.4   103     6.3   99999.0    0.00 
 128   22:30   0.00   63.2    36    2.4   200     4.9   99999.0    0.00 
 128   22:40   0.00   61.6    39    2.5   193     4.2   99999.0    0.00 
 128   22:50   0.00   61.0    40    1.8   175     3.1   99999.0    0.00 
 128   23:00   0.00   60.3    41    0.8   102     2.1   99999.0    0.00 
 128   23:10   0.00   58.9    46    0.0    85     0.0   99999.0    0.00 
 128   23:20   0.00   58.2    44    0.2   157     1.7   99999.0    0.00 
 128   23:30   0.00   57.3    48    0.5   134     2.1   99999.0    0.00 
 128   23:40   0.00   58.2    44    1.9    77     3.1   99999.0    0.00 
 128   23:50   0.00   58.4    43    2.3    98     3.1   99999.0    0.00 
 129    0:00   0.00   57.7    44    1.9   120     3.8   99999.0    0.00 
 129    0:10   0.00   57.0    45    2.7    90     4.2   99999.0    0.00 
 129    0:20   0.00   57.3    45    2.1    86     3.1   99999.0    0.00 
 129    0:30   0.00   57.3    45    2.0    82     3.1   99999.0    0.00 
 129    0:40   0.00   55.1    49    0.6   226     3.1   99999.0    0.00 
 129    0:50   0.00   53.4    52    1.5   206     2.8   99999.0    0.00 
 129    1:00   0.00   53.2    53    0.5   105     2.4   99999.0    0.00 
 129    1:10   0.00   52.8    54    0.1    48     1.7   99999.0    0.00 
 129    1:20   0.00   54.2    51    2.0   109     3.5   99999.0    0.00 
 129    1:30   0.00   53.8    51    2.6   105     3.5   99999.0    0.00 
 129    1:40   0.00   53.3    51    0.9    86     2.8   99999.0    0.00 
 129    1:50   0.00   50.6    57    1.3   195     4.2   99999.0    0.00 
 129    2:00   0.00   49.3    61    1.4   148     3.5   99999.0    0.00 
 129    2:10   0.00   49.5    64    0.3   170     2.4   99999.0    0.00 
 129    2:20   0.00   49.8    63    0.0    44     0.0   99999.0    0.00 
 129    2:30   0.00   49.6    63    0.0    72     0.0   99999.0    0.00 
 129    2:40   0.00   49.9    64    0.0    60     0.0   99999.0    0.00 
 129    2:50   0.00   50.0    60    1.9   158     5.3   99999.0    0.00 
 129    3:00   0.00   48.5    63    2.4   152     3.8   99999.0    0.00 
 129    3:10   0.00   48.7    62    1.8   110     3.1   99999.0    0.00 
 129    3:20   0.00   48.8    61    1.8    94     3.1   99999.0    0.00 
 129    3:30   0.00   48.2    62    2.0   176     3.1   99999.0    0.00 
 129    3:40   0.00   47.4    63    0.4   112     3.1   99999.0    0.00 
 129    3:50   0.00   47.2    64    1.3    67     2.8   99999.0    0.00 
 129    4:00   0.00   47.2    62    1.6   153     5.3   99999.0    0.00 
 129    4:10   0.00   45.6    65    3.0   202     5.3   99999.0    0.00 
 129    4:20   0.00   45.9    66    0.9    32     2.4   99999.0    0.00 
 129    4:30   0.00   44.9    70    0.4   337     2.1   99999.0    0.00 
 129    4:40   0.00   45.6    69    1.7    78     2.8   99999.0    0.00 
 129    4:50   0.00   44.7    73    0.2    22     1.7   99999.0    0.00 
 129    5:00   0.00   44.3    72    0.0   274     0.0   99999.0    0.00 
 129    5:10   0.01   45.3    67    2.5   120     3.1   99999.0    0.00 
 129    5:20   0.01   45.9    66    1.5   124     2.4   99999.0    0.00 
 129    5:30   0.03   46.1    65    1.5   145     3.5   99999.0    0.00 
 129    5:40   0.05   45.6    65    1.3   206     3.8   99999.0    0.00 
 129    5:50   0.07   45.9    64    3.4   178     4.2   99999.0    0.00 
 129    6:00   0.10   47.6    62    1.7   178     3.8   99999.0    0.00 
 129    6:10   0.12   49.5    58    0.0   140     1.0   99999.0    0.00 
 129    6:20   0.14   51.7    57    0.0   196     1.0   99999.0    0.00 
 129    6:30   0.17   51.4    59    0.3   335     1.7   99999.0    0.00 
 129    6:40   0.20   52.8    55    0.0   336     0.0   99999.0    0.00 
 129    6:50   0.22   54.2    55    0.6   328     3.1   99999.0    0.00 
 129    7:00   0.25   55.4    53    2.1   296     3.5   99999.0    0.00 
 129    7:10   0.28   56.8    54    1.1   342     3.1   99999.0    0.00 
 129    7:20   0.31   57.2    52    2.7   351     4.2   99999.0    0.00 
 129    7:30   0.33   58.3    50    2.2   347     4.2   99999.0    0.00 
 129    7:40   0.36   59.6    46    2.5   320     4.2   99999.0    0.00 
 129    7:50   0.39   60.8    42    1.2   336     3.8   99999.0    0.00 
 129    8:00   0.41   62.0    36    1.4   266     3.5   99999.0    0.00 
 129    8:10   0.44   63.5    32    2.0   216     4.6   99999.0    0.00 
 129    8:20   0.47   63.9    30    2.2   171     3.8   99999.0    0.00 
 129    8:30   0.49   64.3    30    2.0   209     4.6   99999.0    0.00 
 129    8:40   0.51   64.9    28    2.5   202     4.9   99999.0    0.00 
 129    8:50   0.54   65.4    26    1.9   189     4.2   99999.0    0.00 
 129    9:00   0.56   65.4    27    2.0   323     4.9   99999.0    0.00 
 129    9:10   0.58   66.3    26    2.4    28     5.3   99999.0    0.00 
 129    9:20   0.60   66.4    25    3.4    29     7.1   99999.0    0.00 
 129    9:30   0.63   66.8    26    2.4    14     4.6   99999.0    0.00 
 129    9:40   0.65   68.6    24    2.0   146     6.3   99999.0    0.00 
 129    9:50   0.66   68.8    27    4.1   358     6.0   99999.0    0.00 
 129   10:00   0.68   69.0    24    3.6     2     8.1   99999.0    0.00 
 129   10:10   0.70   69.9    22    2.4   329     5.3   99999.0    0.00 
 129   10:20   0.71   70.5    24    3.3   358     6.0   99999.0    0.00 

Return to Lazy 5 Park graphs page.


Western Regional Climate Center,wrcc@dri.edu